[X]judi online uang asli

Jackpot

Texas Poker Multi Jackpot System

Kini Telah hadir Jackpot SUPER ROYAL FLUSH

Kini Telah hadir Jackpot 2000 (khusus table VIP keatas).

Ikutilah global jackpot yang tersedia di system kami, dengan system jackpot terbaru dan pertama di indonesia, anda dapat membeli jackpot dengan harga 100 rupiah saja dan menangkan hadiahnya hingga puluhan juta rupiah.

Jackpot bukanlah suatu keharusan untuk dibeli, namun kami memberikan suatu fitur tambahan untuk member tercinta dari www.99onlinepoker.poker.

Terdapat tiga pilihan harga jackpot yang bisa anda beli yaitu :100,500,1000 dan 2000(khusus table VIP Keatas) rupiah.

Hadiah dari Multi jackpot system www.99onlinepoker.poker

  1. full house x 10 harga jackpot yang anda beli.
      (contoh:anda membeli 1000 maka:1000 X10 = 10.000)
  2. four of kind x 250 harga jackpot yang anda beli
      (contoh:anda membeli 1000 maka:1000 X250 = 250.000)
  3. Straight flush x 1200
      (contoh:anda membeli 1000 maka:1000 X1200 = 1.200.000)
  4. Royal flush x 10000 harga jackpot yang anda beli
      (contoh:anda membeli 1000 maka:1000 X10000 = 10.000.000)
  5. SUPER ROYAL FLUSH x 30000 harga jackpot yang anda beli
      (contoh:anda membeli 1000 maka:1000 X30000 = 30.000.000)

Kondisi kartu

  1. full house adalah kondisi kartu dimana kartu anda dan kartu tengah dengan total 7 kartu bisa mendapatkan nilai 5 kartu dengan kombinasi 1 tris(three of kind) dan 1 pair, contoh 3 kartu 10 dan 2 kartu 5
  2. Four of kind adalah kondisi kartu dimana kartu anda dan kartu tengah dengan total 7 kartu bisa mendapatkan nilai 5 kartu dengan kombinasi 4 kartu yang sama jumlah dan 1 kartu apapun juga contoh anda mendapatkan 4 buah kartu angka 3 dan 1 kartu apapun.
  3. Staright flush adalah kondisi kartu dimana kartu anda dan kartu tengah dengan total 7 kartu bisa mendapatkan nilai 5 kartu dengan kombinasi seri / staright dengan kembang yang sama contoh : urutan kartu dari angka 5, 6, 7, 8 , 9 10 dengan kembang yg sama misalnya as hati
  4. Royal flush adalah kondisi kartu dimana kartu anda dan kartu tengah dengan total 7 kartu bisa mendapatkan nilai 5 kartu dengan kombinasi seri / staright dengan kembang yang sama tetapi kartu tersebut haruslah dimulai dari 10. contoh 10, Queen, Jack, King dan aces dengan kembang yang sama
  5. Super Royal flush adalah kondisi kartu dimana Kedua kartu anda digabung dengan 3 kartu pertama meja haruslah royal flush. contoh kartu anda 10,Queen kembang sama dan 3 kartu pertama meja adalah Jack, King dan aces dengan kembang yang sama

Demikian adalah penjelasan dari Multi Jackpot www.99onlinepoker.poker terima kasih dan selamat bermain salam hoki dari kami

Texas Poker Jackpot Winner

TOP SUPER ROYAL FLUSH
No.TanggalNamaPriceWin
120/09 20:17QUNZA15Super Royal flush15,000,000
220/09 17:54ALAN_AA99Super Royal flush6,000,000
320/09 13:44AMORE17Super Royal flush15,000,000
420/09 09:01D45RILSuper Royal flush6,000,000
520/09 05:00NAZARIOOSuper Royal flush30,000,000
TOP ROYAL FLUSH
No.TanggalNamaPriceWin
120/09 23:00VARO00Royal flush1,000,000
220/09 22:56Z7NXMRVRZKRoyal flush5,000,000
320/09 22:45IDMEISYARoyal flush2,000,000
420/09 22:41ESCOBARRoyal flush10,000,000
520/09 22:30MAXXIO8Royal flush2,000,000
TOP STRAIGHT FLUSH
No.TanggalNamaPriceWin
120/09 23:07JX3J21H8ATStraight Flush600,000
220/09 23:06BRATALUCKStraight Flush600,000
320/09 23:06LUTAK09Straight Flush2,400,000
420/09 23:05A68LMA12801Straight Flush120,000
520/09 23:05TAZMANIAK6Straight Flush600,000
LATEST JACKPOT
No.TanggalNamaPriceWin
120/09 23:08BUKUM03Four Of A Kind50,000
220/09 23:08BT4DWD999XFull House2,000
320/09 23:08GUNTUR88XFull House5,000
420/09 23:08TEMPE90Full House20,000
520/09 23:08B7131879Full House2,000
620/09 23:08MBAH_MON4HFull House1,000
720/09 23:08ROYAL_999Four Of A Kind125,000
820/09 23:08GUSAZMIFull House1,000
920/09 23:08SUPERJEMBOFull House10,000
1020/09 23:08AF473DA3Full House2,000
1120/09 23:08PARKUDFull House5,000
1220/09 23:08MES5GDEZQJFull House2,000
1320/09 23:08OPAL01Full House10,000
1420/09 23:08DANCEGLO27Full House1,000
1520/09 23:08C13956E0Full House2,000
1620/09 23:08FENI2727Full House20,000
1720/09 23:08D0BD65E1Full House2,000
1820/09 23:08YUDISTK8Full House1,000
1920/09 23:08FANIKU27Four Of A Kind25,000
2020/09 23:08PRETO_88Full House10,000
2120/09 23:08WUULAANNFull House2,000
2220/09 23:08SIXSIX69Full House2,000
2320/09 23:08VRGVVDSSDSFull House2,000
2420/09 23:08THADUNK00Full House2,000
2520/09 23:08K4444YLAFull House5,000
2620/09 23:08RASITT543Full House10,000
2720/09 23:08RIZKYIFQIFull House10,000
2820/09 23:08ALWY333Full House10,000
2920/09 23:08GBU123Full House20,000
3020/09 23:08PANCASONFull House500
3120/09 23:08KCK2TF8NAQFull House1,000
3220/09 23:08MILHO245Full House2,000
3320/09 23:08SPEED234Four Of A Kind250,000
3420/09 23:08SUNNYLEONEFull House1,000
3520/09 23:08BB68A208Full House1,000
3620/09 23:08D4EF8EB5Full House5,000
3720/09 23:08OPIN123Full House5,000
3820/09 23:08B_633_LZSFull House2,000
3920/09 23:08R2202Full House2,000
4020/09 23:08GOZILA101Full House5,000
4120/09 23:08CHUBACHUBAFull House1,000
4220/09 23:08YLOVBI23Z4Full House1,000
4320/09 23:08BERUANG02Full House5,000
4420/09 23:08LERAGER_98Full House2,000
4520/09 23:07CHEATER88Full House5,000
4620/09 23:07DEDI234Full House2,000
4720/09 23:07SRYD1Full House1,000
4820/09 23:07RJPOKER2Full House1,000
4920/09 23:07FAF728DFFull House1,000
5020/09 23:07NALD83Full House5,000

Domino Multi Jackpot System

Ikutilah global jackpot yang tersedia di system kami, dengan system jackpot terbaru dan pertama di indonesia, anda dapat membeli jackpot dengan harga 100 rupiah saja dan menangkan hadiahnya hingga puluhan juta rupiah.

Jackpot bukanlah suatu keharusan untuk dibeli, namun kami memberikan suatu fitur tambahan untuk member tercinta dari www.99onlinepoker.poker.

Terdapat tiga pilihan harga jackpot yang bisa anda beli yaitu :100,500 dan 1000 rupiah.

Hadiah dari Multi jackpot system www.99onlinepoker.poker

  1. Murni Kecil x 50 harga jackpot yang anda beli.
      (contoh:anda membeli 1000 maka:1000 X 50 = 50.000)
  2. Murni Besar x 50 harga jackpot yang anda beli
      (contoh:anda membeli 1000 maka:1000 X 50 = 50.000)
  3. BALAK x 100 harga jackpot yang anda beli
      (contoh:anda membeli 1000 maka:1000 X 100 = 100.000)
  4. ENAM DEWA x 6666 harga jackpot yang anda beli
      (contoh:anda membeli 1000 maka:1000 X 6666 = 6.666.000)

Demikian adalah penjelasan dari Multi Jackpot www.99onlinepoker.poker terima kasih dan selamat bermain salam hoki dari kami

Domino Jackpot Winner

TOP ENAM DEWA
No.TanggalNamaPriceWin
120/09 21:32SASTRA99murni enam3,333,000
220/09 20:58SISIGALUNGmurni enam6,666,000
320/09 20:56MARLEY2159murni enam6,666,000
420/09 20:43LELE1212murni enam3,333,000
520/09 15:18MARLEY2159murni enam6,666,000
TOP BALAK
No.TanggalNamaPriceWin
120/09 23:07SATU777balak100,000
220/09 23:04JPBOS151balak100,000
320/09 23:02T4DJIWABARU77balak50,000
420/09 23:01ZORRO63balak100,000
520/09 23:01BASKOM41balak100,000
LATEST JACKPOT
No.TanggalNamaPriceWin
120/09 23:08AJIIRFANImurni besar5,000
220/09 23:08DUITKU79murni kecil25,000
320/09 23:07FADERSmurni kecil50,000
420/09 23:07SAPU9murni kecil50,000
520/09 23:07MAMUN74murni kecil50,000
620/09 23:07JUNAK28murni kecil50,000
720/09 23:07SATU777balak100,000
820/09 23:06RAJAR4MP0Kmurni kecil50,000
920/09 23:05FETZUmurni kecil50,000
1020/09 23:05DDDDAF4Cmurni kecil50,000
1120/09 23:05SIDOMAR4murni kecil25,000
1220/09 23:05DZIMIDmurni kecil50,000
1320/09 23:04ILHAM2026lucky9925,000
1420/09 23:04JPBOS151balak100,000
1520/09 23:03M03T333murni besar25,000
1620/09 23:02UMAULUN1murni besar25,000
1720/09 23:02RUSMA12murni besar50,000
1820/09 23:02PLETUK3murni kecil25,000
1920/09 23:02NIKMAT14murni kecil50,000
2020/09 23:02T4DJIWABARU77balak50,000
2120/09 23:01IWANAMRUL1murni kecil50,000
2220/09 23:01ZORRO63balak100,000
2320/09 23:01BASKOM41balak100,000
2420/09 23:01GELANG44murni besar25,000
2520/09 23:01NEMPATKALIbalak50,000
2620/09 23:00LUBY9murni kecil5,000
2720/09 23:00SAPU9murni kecil50,000
2820/09 23:00NAUTICAAmurni kecil50,000
2920/09 23:00SANDS66GGbalak100,000
3020/09 22:59T0T0Tmurni kecil5,000
3120/09 22:59S3T4NL0murni besar5,000
3220/09 22:59JHAJHA01murni kecil25,000
3320/09 22:58HANUNG_11murni kecil50,000
3420/09 22:58SG_BASTIANmurni besar25,000
3520/09 22:58SIOHOALUmurni besar50,000
3620/09 22:58C84OKI333murni kecil5,000
3720/09 22:58BENOITmurni kecil25,000
3820/09 22:57QASTANULmurni besar50,000
3920/09 22:57YORDAN77murni besar25,000
4020/09 22:57RATA82murni kecil25,000
4120/09 22:57DATBOmurni kecil5,000
4220/09 22:57VIOLET72balak100,000
4320/09 22:56MPANGGA899murni kecil25,000
4420/09 22:55ANDREATITAmurni besar50,000
4520/09 22:55CIHUUII005murni besar5,000
4620/09 22:55DM82997murni kecil50,000
4720/09 22:54NICKNAME09balak10,000
4820/09 22:54GUS13murni besar50,000
4920/09 22:53A_A_W_Kbalak50,000
5020/09 22:53MARYANTO70balak100,000

Ceme Multi Jackpot System

Jackpot dilihat dari gabungan kartu pemain dengan kartu bandar. Bandar harus membeli jackpot sebanyak jumlah player yang sedang duduk. Sebagai contoh bila terdapat 3 pemain duduk bermain, dan bandar memutuskan untuk membeli jackpot Rp 1.000, maka pada periode tersebut bandar akan membeli jackpot sebanyak 3xRp1.000 = Rp3.000.

Jackpot bukanlah suatu keharusan untuk dibeli, namun kami memberikan suatu fitur tambahan untuk member tercinta dari www.99onlinepoker.poker.

Terdapat tiga pilihan harga jackpot yang bisa anda beli yaitu :100,500 dan 1000 rupiah.

Hadiah dari Multi jackpot system www.99onlinepoker.poker

  1. Murni Kecil x 50 harga jackpot yang anda beli.
      (contoh:anda membeli 1000 maka:1000 X 50 = 50.000)
  2. Murni Besar x 50 harga jackpot yang anda beli
      (contoh:anda membeli 1000 maka:1000 X 50 = 50.000)
  3. BALAK x 200 harga jackpot yang anda beli
      (contoh:anda membeli 1000 maka:1000 X 200 = 200.000)
  4. ENAM DEWA x 6666 harga jackpot yang anda beli
      (contoh:anda membeli 1000 maka:1000 X 6666 = 6.666.000)

Demikian adalah penjelasan dari Multi Jackpot www.99onlinepoker.poker terima kasih dan selamat bermain salam hoki dari kami

Ceme Jackpot Winner

TOP ENAM DEWA
No.TanggalNamaPriceWin
120/09 22:59R4J4N_99murni enam3,333,000
220/09 22:55UGIX1988murni enam6,666,000
320/09 22:54B36IF101033murni enam666,600
420/09 22:53QWFI5FRCMKmurni enam666,600
520/09 22:41POKERO1001murni enam6,666,000
TOP BALAK
No.TanggalNamaPriceWin
120/09 23:08CITA88balak200,000
220/09 23:08BOSKU06balak20,000
320/09 23:08ANGGARESHEbalak100,000
420/09 23:07PENDO008balak200,000
520/09 23:07T0HA99balak20,000
LATEST JACKPOT
No.TanggalNamaPriceWin
120/09 23:08CITA88balak200,000
220/09 23:08BOSKU06balak20,000
320/09 23:08LAWAK88murni kecil50,000
420/09 23:08SUSANA33murni kecil50,000
520/09 23:08MANGJO86murni kecil50,000
620/09 23:08HENAE4CFSFmurni besar5,000
720/09 23:08ZITTA81murni besar5,000
820/09 23:08ANGGARESHEbalak100,000
920/09 23:07BRONGJAMSmurni kecil25,000
1020/09 23:07MADAM09murni kecil50,000
1120/09 23:07IWULDJARWOmurni kecil5,000
1220/09 23:07KOKO050murni besar25,000
1320/09 23:07KOKO050murni besar25,000
1420/09 23:07ALX19murni besar50,000
1520/09 23:07AMEL07murni besar50,000
1620/09 23:07PENDO008balak200,000
1720/09 23:07T0HA99balak20,000
1820/09 23:07JEBRET123murni kecil5,000
1920/09 23:07BUNDAETO90murni besar50,000
2020/09 23:07DU2Tmurni kecil50,000
2120/09 23:07SAPUTRO88balak200,000
2220/09 23:07AAF8D733balak100,000
2320/09 23:07DEVILTFmurni kecil50,000
2420/09 23:07H_JOKOWImurni kecil25,000
2520/09 23:07POKET898murni kecil50,000
2620/09 23:07MOCHIE89murni kecil50,000
2720/09 23:07VHLS7GN1T1murni kecil25,000
2820/09 23:07TOLLE44murni kecil50,000
2920/09 23:07D0D0L02murni besar50,000
3020/09 23:07E3089EA5murni kecil25,000
3120/09 23:07GELO99murni besar25,000
3220/09 23:07YUKICHIEmurni besar25,000
3320/09 23:06HERWINJImurni besar5,000
3420/09 23:06BROGI366murni besar50,000
3520/09 23:06TIPSANI81murni besar5,000
3620/09 23:06VYD8AKDZYWmurni kecil5,000
3720/09 23:06FENDYYbalak20,000
3820/09 23:06INDOPYPmurni kecil25,000
3920/09 23:06DONI448murni kecil50,000
4020/09 23:06DINOOOmurni kecil25,000
4120/09 23:06CHENDYHOKImurni besar25,000
4220/09 23:06JBAROE41murni kecil25,000
4320/09 23:06JUSTERNAmurni besar5,000
4420/09 23:05TEJOWINNERmurni kecil50,000
4520/09 23:05ALONG11murni kecil50,000
4620/09 23:05ARNELISmurni besar50,000
4720/09 23:05GUINNY001murni besar50,000
4820/09 23:05STARLA378murni besar5,000
4920/09 23:05MANGJO86balak200,000
5020/09 23:05CBB91BD5balak20,000